When you browse on this site, cookies collect data to enhance your experience and personalize the content and advertising you see.
Visit our Privacy Policy to learn more. By continuing to use the site, you agree to this use of cookies and data.
  • In United Kingdom
  • List of Countries
  • For 7 days
  • Water Temperature
  • Weather Map
  • Weather Widgets
  • user-avatar
    Login

    Hourly Weather Garmisch-Partenkirchen

    Today, 29 May, Friday

    Time Temperature Precipitation Wind Pressure Humidity
    00:00 +4°C° 0.3 mm 0 mps 680 mmHg 94%
    01:00 +5°C° 0 mm 1 mps 680 mmHg 93%
    02:00 +4°C° 0.1 mm 1 mps 680 mmHg 94%
    03:00 +2°C° 0.1 mm 0 mps 680 mmHg 94%
    04:00 +2°C° 0.1 mm 0 mps 680 mmHg 94%
    05:00 +4°C° 0 mm 0 mps 680 mmHg 91%
    06:00 +5°C° 0 mm 0 mps 680 mmHg 88%
    07:00 +8°C° 0 mm 0 mps 681 mmHg 86%
    08:00 +10°C° 0 mm 1 mps 680 mmHg 75%
    09:00 +10°C° 0 mm 2 mps 680 mmHg 65%
    10:00 +13°C° 0 mm 2 mps 680 mmHg 55%
    11:00 +13°C° 0 mm 2 mps 680 mmHg 54%
    12:00 +14°C° 0 mm 2 mps 680 mmHg 53%
    13:00 +14°C° 0 mm 2 mps 680 mmHg 52%
    14:00 +14°C° 0 mm 2 mps 679 mmHg 52%
    15:00 +14°C° 0 mm 2 mps 679 mmHg 52%
    16:00 +13°C° 0 mm 3 mps 678 mmHg 52%
    17:00 +13°C° 0 mm 2 mps 678 mmHg 59%
    18:00 +12°C° 0 mm 2 mps 678 mmHg 65%
    19:00 +10°C° 0 mm 2 mps 677 mmHg 72%
    20:00 +9°C° 0 mm 1 mps 677 mmHg 79%
    21:00 +8°C° 0 mm 1 mps 677 mmHg 87%
    22:00 +6°C° 0 mm 1 mps 677 mmHg 95%
    23:00 +5°C° 0 mm 1 mps 677 mmHg 95%

    Tomorrow, 30 May, Saturday

    Time Temperature Precipitation Wind Pressure Humidity
    00:00 +5°C° 0 mm 1 mps 677 mmHg 94%
    01:00 +5°C° 0 mm 1 mps 677 mmHg 94%
    02:00 +4°C° 0 mm 1 mps 677 mmHg 94%
    03:00 +4°C° 0 mm 1 mps 676 mmHg 94%
    04:00 +4°C° 0 mm 1 mps 676 mmHg 94%
    05:00 +6°C° 0 mm 1 mps 676 mmHg 88%
    06:00 +8°C° 0 mm 1 mps 677 mmHg 82%
    07:00 +9°C° 0 mm 1 mps 677 mmHg 76%
    08:00 +11°C° 0 mm 1 mps 677 mmHg 68%
    09:00 +12°C° 0 mm 2 mps 677 mmHg 60%
    10:00 +14°C° 0 mm 2 mps 677 mmHg 51%
    11:00 +13°C° 0 mm 3 mps 677 mmHg 50%
    12:00 +14°C° 0 mm 3 mps 677 mmHg 48%
    13:00 +14°C° 0 mm 3 mps 677 mmHg 46%
    14:00 +14°C° 0 mm 3 mps 677 mmHg 51%
    15:00 +13°C° 0 mm 3 mps 676 mmHg 55%
    16:00 +12°C° 0 mm 3 mps 676 mmHg 60%
    17:00 +12°C° 0.1 mm 2 mps 676 mmHg 68%
    18:00 +10°C° 0.1 mm 2 mps 676 mmHg 76%
    19:00 +9°C° 0.1 mm 2 mps 676 mmHg 84%
    20:00 +9°C° 0 mm 1 mps 676 mmHg 89%
    21:00 +8°C° 0 mm 1 mps 676 mmHg 93%
    22:00 +5°C° 0 mm 0 mps 676 mmHg 98%
    23:00 +5°C° 0 mm 0 mps 676 mmHg 97%

    Day after tomorrow, 31 May, Sunday

    Time Temperature Precipitation Wind Pressure Humidity
    00:00 +5°C° 0 mm 0 mps 676 mmHg 97%
    01:00 +5°C° 0 mm 0 mps 676 mmHg 96%
    02:00 +4°C° 0 mm 0 mps 676 mmHg 96%
    03:00 +4°C° 0 mm 0 mps 675 mmHg 96%
    04:00 +4°C° 0 mm 0 mps 675 mmHg 96%
    05:00 +5°C° 0 mm 0 mps 676 mmHg 92%
    06:00 +7°C° 0 mm 0 mps 676 mmHg 87%
    07:00 +8°C° 0 mm 0 mps 676 mmHg 82%
    08:00 +10°C° 0 mm 1 mps 676 mmHg 75%
    09:00 +12°C° 0 mm 2 mps 676 mmHg 68%
    10:00 +13°C° 0 mm 2 mps 676 mmHg 61%
    11:00 +14°C° 0 mm 2 mps 676 mmHg 58%
    12:00 +14°C° 0 mm 2 mps 676 mmHg 55%
    13:00 +15°C° 0 mm 2 mps 676 mmHg 53%
    14:00 +15°C° 0 mm 2 mps 676 mmHg 51%
    15:00 +15°C° 0 mm 2 mps 676 mmHg 50%
    16:00 +16°C° 0 mm 3 mps 676 mmHg 49%
    17:00 +15°C° 0 mm 2 mps 676 mmHg 56%
    18:00 +13°C° 0 mm 2 mps 676 mmHg 63%
    19:00 +12°C° 0 mm 2 mps 676 mmHg 70%
    20:00 +10°C° 0 mm 1 mps 676 mmHg 78%
    21:00 +8°C° 0 mm 1 mps 676 mmHg 86%
    22:00 +7°C° 0 mm 1 mps 676 mmHg 94%
    23:00 +6°C° 0 mm 1 mps 676 mmHg 94%

    1 June, Monday

    Time Temperature Precipitation Wind Pressure Humidity
    00:00 +6°C° 0 mm 1 mps 676 mmHg 94%
    01:00 +6°C° 0 mm 1 mps 676 mmHg 94%
    02:00 +5°C° 0 mm 1 mps 676 mmHg 94%
    03:00 +5°C° 0 mm 1 mps 676 mmHg 94%
    04:00 +5°C° 0 mm 1 mps 676 mmHg 93%
    05:00 +7°C° 0 mm 1 mps 676 mmHg 85%
    06:00 +9°C° 0 mm 1 mps 676 mmHg 76%
    07:00 +11°C° 0 mm 1 mps 677 mmHg 68%
    08:00 +13°C° 0 mm 1 mps 677 mmHg 61%
    09:00 +15°C° 0 mm 2 mps 677 mmHg 54%
    10:00 +17°C° 0 mm 2 mps 678 mmHg 47%
    11:00 +18°C° 0 mm 2 mps 678 mmHg 46%
    12:00 +19°C° 0 mm 3 mps 678 mmHg 44%
    13:00 +19°C° 0 mm 3 mps 678 mmHg 43%
    14:00 +19°C° 0 mm 3 mps 678 mmHg 46%
    15:00 +19°C° 0 mm 3 mps 677 mmHg 49%
    16:00 +19°C° 0 mm 3 mps 677 mmHg 51%
    17:00 +17°C° 0 mm 3 mps 677 mmHg 59%
    18:00 +16°C° 0 mm 2 mps 677 mmHg 66%
    19:00 +15°C° 0 mm 2 mps 677 mmHg 74%
    20:00 +13°C° 0 mm 1 mps 677 mmHg 81%
    21:00 +11°C° 0 mm 1 mps 677 mmHg 88%
    22:00 +9°C° 0 mm 1 mps 677 mmHg 94%
    23:00 +8°C° 0 mm 1 mps 676 mmHg 95%

    2 June, Tuesday

    Time Temperature Precipitation Wind Pressure Humidity
    00:00 +8°C° 0 mm 1 mps 676 mmHg 95%
    01:00 +8°C° 0 mm 1 mps 676 mmHg 95%
    02:00 +7°C° 0 mm 1 mps 676 mmHg 95%
    03:00 +7°C° 0 mm 1 mps 676 mmHg 95%
    04:00 +7°C° 0 mm 1 mps 676 mmHg 95%
    05:00 +8°C° 0 mm 0 mps 676 mmHg 89%
    06:00 +10°C° 0 mm 0 mps 677 mmHg 83%
    07:00 +12°C° 0 mm 0 mps 677 mmHg 76%
    08:00 +15°C° 0 mm 1 mps 677 mmHg 66%
    09:00 +18°C° 0 mm 1 mps 677 mmHg 55%
    10:00 +19°C° 0 mm 2 mps 678 mmHg 45%
    11:00 +19°C° 0 mm 2 mps 677 mmHg 42%
    12:00 +20°C° 0 mm 2 mps 677 mmHg 40%
    13:00 +21°C° 0 mm 3 mps 677 mmHg 37%
    14:00 +21°C° 0 mm 3 mps 676 mmHg 39%
    15:00 +20°C° 0 mm 3 mps 676 mmHg 41%
    16:00 +20°C° 0 mm 3 mps 675 mmHg 43%
    17:00 +18°C° 0 mm 2 mps 675 mmHg 52%
    18:00 +17°C° 0 mm 2 mps 674 mmHg 61%
    19:00 +15°C° 0 mm 1 mps 674 mmHg 70%
    20:00 +13°C° 0 mm 1 mps 673 mmHg 77%
    21:00 +11°C° 0 mm 1 mps 673 mmHg 84%
    22:00 +9°C° 0 mm 1 mps 673 mmHg 91%
    23:00 +9°C° 0 mm 1 mps 672 mmHg 91%

    3 June, Wednesday

    Time Temperature Precipitation Wind Pressure Humidity
    00:00 +9°C° 0 mm 1 mps 672 mmHg 91%
    01:00 +8°C° 0 mm 1 mps 672 mmHg 90%
    02:00 +8°C° 0 mm 1 mps 671 mmHg 90%
    03:00 +8°C° 0 mm 1 mps 671 mmHg 89%
    04:00 +8°C° 0 mm 1 mps 671 mmHg 88%
    05:00 +10°C° 0 mm 1 mps 671 mmHg 80%
    06:00 +13°C° 0 mm 1 mps 671 mmHg 72%
    07:00 +15°C° 0 mm 1 mps 671 mmHg 64%
    08:00 +18°C° 0 mm 1 mps 671 mmHg 55%
    09:00 +21°C° 0 mm 1 mps 671 mmHg 46%
    10:00 +23°C° 0 mm 1 mps 672 mmHg 37%
    11:00 +23°C° 0 mm 1 mps 671 mmHg 35%
    12:00 +23°C° 0 mm 2 mps 671 mmHg 34%
    13:00 +24°C° 0 mm 2 mps 670 mmHg 33%
    14:00 +23°C° 0 mm 2 mps 670 mmHg 36%
    15:00 +23°C° 0 mm 2 mps 669 mmHg 40%
    16:00 +21°C° 0 mm 2 mps 669 mmHg 43%
    17:00 +20°C° 0.2 mm 2 mps 668 mmHg 54%
    18:00 +19°C° 0.2 mm 1 mps 668 mmHg 64%
    19:00 +16°C° 0.2 mm 1 mps 668 mmHg 75%
    20:00 +15°C° 0.1 mm 1 mps 668 mmHg 79%
    21:00 +14°C° 0.1 mm 1 mps 668 mmHg 82%
    22:00 +13°C° 0.1 mm 1 mps 668 mmHg 86%
    23:00 +12°C° 0 mm 1 mps 667 mmHg 88%
    Show more